[[{"header":{"parameterUnit":"m.s-1","parameterCategory":1,"la1":30.2991,"la2":30.254,"lo1":-89.0895,"lo2":-89.0444,"dy":0.0017,"dx":0.0017,"nx":28,"ny":28,"refTime":"2024-03-16T03:00:00:Z","depth":0,"parameterNumber":2,"parameterNumberName":"U-component_of_WINDS"},"data":[0,0,0,0,0,0,0,0,0,0,0,0,0,0,0,0,0,0,0,0,0,0,0,0,0,0,0,0,0,0,0,0,0,0,0,0,0,0,0,0,0,0,0,0,0,0,0,0,0,0,0,0,0,0,0,0,0,0,-1.4192,-1.4191,0,-1.4086,-1.4084,-1.4083,-1.401,-1.401,-1.4009,-1.4009,-1.3896,-1.3893,-1.3891,0,0,0,0,0,0,0,0,0,0,0,0,0,-1.4328,-1.4326,-1.4192,-1.4191,-1.4189,-1.4086,-1.4084,-1.4083,-1.401,-1.401,-1.4009,-1.4009,-1.3897,-1.3894,-1.3891,0,0,0,0,0,0,0,0,0,0,0,0,0,-1.425,-1.4326,-1.4192,-1.4141,-1.4135,-1.4086,-1.4084,-1.4082,-1.4011,-1.401,-1.4009,-1.4008,-1.3898,-1.3894,-1.389,-1.3882,0,0,-1.3879,-1.3877,0,0,0,0,0,0,0,0,-1.4255,-1.4245,-1.415,-1.4144,-1.4138,-1.4061,-1.4091,-1.4015,-1.4011,-1.4058,-1.4009,-1.4008,-1.3951,-1.3943,-1.3924,-1.3877,-1.3872,-1.3878,-1.3876,-1.3874,-1.3873,0,0,0,0,0,0,0,-1.426,-1.4249,-1.415,-1.4148,-1.4141,-1.4122,-1.411,-1.4076,-1.401,-1.4054,-1.4048,-1.4037,-1.3947,-1.3928,-1.3921,-1.387,-1.3878,-1.3875,-1.3873,-1.3871,-1.3811,-1.3812,0,0,0,0,0,0,-1.4274,-1.4254,-1.4153,-1.4146,-1.4196,-1.412,-1.4107,-1.4086,-1.401,-1.3998,-1.4038,-1.4034,-1.3935,-1.3926,-1.3917,-1.3902,-1.3874,-1.3871,-1.3869,-1.3811,-1.3811,-1.3812,0,0,0,0,0,0,-1.4278,-1.4266,-1.4157,-1.4199,-1.4184,-1.4119,-1.4096,-1.4084,-1.4065,-1.3998,-1.3985,-1.403,-1.3934,-1.3922,-1.3892,-1.3897,-1.3869,-1.3866,-1.381,-1.3811,-1.3812,-1.3874,0,0,0,0,0,0,-1.4282,-1.4268,-1.4265,-1.42,-1.4182,-1.4135,-1.4096,-1.4083,-1.4059,-1.4053,-1.3988,-1.3976,-1.3932,-1.3898,-1.3888,-1.3892,-1.3863,-1.3809,-1.381,-1.3811,-1.3871,-1.3877,-1.3882,0,0,0,0,0,-1.4287,-1.4285,-1.4265,-1.4253,-1.4177,-1.4136,-1.4125,-1.4076,-1.406,-1.4056,-1.4013,-1.3978,-1.3899,-1.3895,-1.3884,-1.3886,-1.3808,-1.381,-1.3811,-1.3868,-1.3875,-1.3881,0,0,0,0,0,0,-1.4351,-1.4276,-1.4252,-1.423,-1.419,-1.4124,-1.4117,-1.4086,-1.4048,-1.4044,-1.3984,-1.397,-1.3945,-1.3913,-1.391,-1.3875,-1.3849,-1.3849,-1.3897,-1.3903,-1.3908,-1.3916,-1.3859,0,0,0,0,0,-1.4363,-1.4337,-1.4272,-1.4259,-1.424,-1.4182,-1.4162,-1.4129,-1.4084,-1.4066,-1.4021,-1.3978,-1.3943,-1.3921,-1.3886,-1.3866,-1.385,-1.3862,-1.3868,-1.3873,-1.3872,-1.3859,-1.3863,-1.3817,-1.3817,-1.3817,0,0,-1.4386,-1.4342,-1.4329,-1.427,-1.4235,-1.4209,-1.4168,-1.4141,-1.4121,-1.4061,-1.403,-1.3996,-1.3944,-1.3919,-1.3906,-1.3891,-1.3882,-1.3875,-1.3879,-1.3876,-1.3861,-1.3865,-1.3869,-1.3818,-1.3818,-1.3818,0,0,-1.4415,-1.438,-1.4365,-1.4331,-1.4279,-1.4241,-1.4238,-1.4176,-1.4152,-1.412,-1.4075,-1.4049,-1.399,-1.3955,-1.393,-1.3947,-1.3913,-1.3937,-1.3965,-1.3953,-1.3957,-1.396,-1.3965,-1.3968,-1.3938,-1.3938,-1.3938,0,-1.445,-1.441,-1.436,-1.4337,-1.4312,-1.4259,-1.4243,-1.4212,-1.4151,-1.4134,-1.4119,-1.4046,-1.4007,-1.3973,-1.3977,-1.3959,-1.3952,-1.3944,-1.3961,-1.3963,-1.3965,-1.3969,-1.3971,-1.3941,-1.394,-1.394,-1.394,0,-1.4455,-1.4428,-1.4421,-1.4365,-1.434,-1.432,-1.4267,-1.4247,-1.4216,-1.4179,-1.4147,-1.4099,-1.4053,-1.4042,-1.4011,-1.4004,-1.3996,-1.3972,-1.3945,-1.3973,-1.3976,-1.3977,-1.3945,-1.3944,-1.3943,-1.3942,0,0,-1.4519,-1.4438,-1.4436,-1.441,-1.435,-1.4327,-1.4305,-1.4262,-1.4245,-1.4205,-1.4184,-1.4137,-1.4114,-1.4085,-1.405,-1.4039,-1.4055,-1.4016,-1.4013,-1.4024,-1.4044,-1.4061,-1.4064,-1.4034,-1.4034,-1.4034,-1.4048,0,-1.4538,-1.4496,-1.4452,-1.4425,-1.4399,-1.4349,-1.433,-1.429,-1.4256,-1.4227,-1.4188,-1.4156,-1.4129,-1.4111,-1.4099,-1.4056,-1.4058,-1.4055,-1.4012,-1.4011,-1.4025,-1.4066,-1.4084,-1.41,-1.4049,-1.4049,-1.4049,0,-1.4554,-1.4518,-1.449,-1.4433,-1.442,-1.4403,-1.436,-1.4334,-1.4288,-1.4263,-1.4232,-1.4195,-1.4168,-1.4146,-1.4107,-1.4105,-1.4085,-1.4062,-1.4061,-1.4054,-1.403,-1.4058,-1.4103,-1.4105,-1.405,-1.405,-1.405,0,-1.4603,-1.4547,-1.4523,-1.4502,-1.4435,-1.4425,-1.4396,-1.435,-1.4327,-1.4289,-1.4273,-1.4232,-1.4209,-1.4177,-1.413,-1.4118,-1.4096,-1.407,-1.4073,-1.4074,-1.4069,-1.407,-1.411,-1.4059,-1.4059,-1.4059,-1.4059,0,-1.4627,-1.4611,-1.4544,-1.4529,-1.4509,-1.4458,-1.444,-1.4407,-1.4366,-1.4343,-1.4298,-1.4276,-1.4215,-1.4186,-1.4149,-1.4122,-1.4112,-1.4091,-1.408,-1.4094,-1.4096,-1.4078,-1.4075,-1.4059,-1.4059,-1.4059,-1.4059,0,-1.4677,-1.4632,-1.4602,-1.4542,-1.4526,-1.4515,-1.4462,-1.4445,-1.4409,-1.438,-1.437,-1.4313,-1.4277,-1.4227,-1.4175,-1.415,-1.4127,-1.4112,-1.4143,-1.4137,-1.4143,-1.4143,-1.4172,-1.4172,-1.4123,-1.4124,-1.4124,0,-1.4695,-1.4682,-1.4622,-1.4604,-1.4577,-1.4548,-1.4525,-1.4475,-1.4452,-1.44,-1.4389,-1.435,-1.4315,-1.426,-1.4212,-1.4172,-1.4155,-1.4168,-1.4148,-1.4162,-1.4154,-1.4154,-1.4152,-1.4172,-1.4173,-1.4174,-1.4174,0,-1.4732,-1.471,-1.4679,-1.4641,-1.4615,-1.4582,-1.4546,-1.4534,-1.4475,-1.4452,-1.4416,-1.439,-1.4338,-1.4299,-1.4253,-1.4222,-1.4188,-1.4181,-1.418,-1.4192,-1.421,-1.4199,-1.4155,-1.418,-1.418,-1.4179,-1.4179,-1.4179,-1.4765,-1.4751,-1.4707,-1.4674,-1.4643,-1.4611,-1.4592,-1.4554,-1.4523,-1.4478,-1.445,-1.4415,-1.4369,-1.4304,-1.4275,-1.4246,-1.4232,-1.423,-1.4229,-1.4229,-1.4233,-1.4217,-1.4237,-1.4237,-1.4237,-1.4237,-1.4236,0,-1.4798,-1.4768,-1.4739,-1.4691,-1.4665,-1.4638,-1.4598,-1.4577,-1.4547,-1.4509,-1.4477,-1.4435,-1.4397,-1.4348,-1.4307,-1.4293,-1.4276,-1.4283,-1.4283,-1.4276,-1.4248,-1.4253,-1.4298,-1.4298,-1.4298,-1.4298,-1.4298,-1.4298,-1.4813,-1.4788,-1.4761,-1.472,-1.4689,-1.4655,-1.4634,-1.4604,-1.4573,-1.4529,-1.4498,-1.4467,-1.4424,-1.4379,-1.4343,-1.433,-1.4316,-1.4328,-1.4309,-1.4284,-1.4278,-1.4273,-1.4277,-1.4326,-1.4326,-1.4339,-1.4339,-1.4339]},{"header":{"parameterUnit":"m.s-1","parameterCategory":1,"la1":30.2991,"la2":30.254,"lo1":-89.0895,"lo2":-89.0444,"dy":0.0017,"dx":0.0017,"nx":28,"ny":28,"refTime":"2024-03-16T03:00:00:Z","depth":0,"parameterNumber":3,"parameterNumberName":"V-component_of_WINDS"},"data":[0,0,0,0,0,0,0,0,0,0,0,0,0,0,0,0,0,0,0,0,0,0,0,0,0,0,0,0,0,0,0,0,0,0,0,0,0,0,0,0,0,0,0,0,0,0,0,0,0,0,0,0,0,0,0,0,0,0,0.9329,0.9329,0,0.9293,0.9293,0.9292,0.9281,0.9282,0.9282,0.9282,0.9244,0.9243,0.9242,0,0,0,0,0,0,0,0,0,0,0,0,0,0.9388,0.9387,0.9329,0.9329,0.9328,0.9293,0.9293,0.9292,0.9281,0.9282,0.9282,0.9282,0.9245,0.9243,0.9242,0,0,0,0,0,0,0,0,0,0,0,0,0,0.9358,0.9386,0.9329,0.9318,0.9317,0.9293,0.9293,0.9292,0.9281,0.9282,0.9282,0.9282,0.9245,0.9244,0.9242,0.9226,0,0,0.9236,0.9236,0,0,0,0,0,0,0,0,0.936,0.9356,0.932,0.9319,0.9318,0.9292,0.93,0.927,0.9281,0.9295,0.9282,0.9282,0.926,0.9257,0.925,0.9224,0.9222,0.9236,0.9235,0.9235,0.9234,0,0,0,0,0,0,0,0.9362,0.9357,0.9315,0.932,0.9318,0.9316,0.9312,0.9294,0.9276,0.9294,0.9293,0.9289,0.9259,0.9251,0.9249,0.9222,0.9236,0.9235,0.9234,0.9233,0.9182,0.9182,0,0,0,0,0,0,0.9366,0.9359,0.9316,0.9314,0.934,0.9314,0.931,0.93,0.9277,0.9273,0.9289,0.9288,0.9254,0.9251,0.9247,0.9228,0.9235,0.9233,0.9232,0.9183,0.9182,0.9182,0,0,0,0,0,0,0.9367,0.9362,0.9317,0.9336,0.933,0.9313,0.9302,0.9299,0.9291,0.9273,0.9269,0.9284,0.9254,0.925,0.9232,0.9226,0.9232,0.9231,0.9183,0.9182,0.9182,0.9188,0,0,0,0,0,0,0.9369,0.9363,0.9356,0.9336,0.9329,0.9302,0.9302,0.9298,0.9288,0.9288,0.9267,0.9264,0.9254,0.9234,0.923,0.9224,0.9229,0.9183,0.9183,0.9182,0.9188,0.9188,0.9187,0,0,0,0,0,0.9371,0.9359,0.9356,0.9351,0.9321,0.9302,0.9298,0.9287,0.9288,0.9282,0.927,0.9265,0.9228,0.9232,0.9227,0.9221,0.9184,0.9183,0.9182,0.9188,0.9188,0.9187,0,0,0,0,0,0,0.9378,0.9356,0.9352,0.9334,0.932,0.93,0.9291,0.9287,0.9272,0.9272,0.9259,0.9254,0.9237,0.9227,0.9233,0.9205,0.9205,0.9204,0.9212,0.9211,0.9211,0.9213,0.9228,0,0,0,0,0,0.9378,0.9364,0.9345,0.933,0.9324,0.9309,0.93,0.9293,0.9278,0.9272,0.9259,0.9244,0.9229,0.922,0.9205,0.9187,0.9182,0.918,0.9179,0.9179,0.9178,0.9168,0.9167,0.918,0.918,0.918,0,0,0.9376,0.9362,0.9354,0.9331,0.932,0.9306,0.9304,0.9289,0.9279,0.9269,0.9252,0.9242,0.9225,0.9207,0.9198,0.9198,0.9174,0.9178,0.9178,0.9177,0.9168,0.9166,0.9165,0.9179,0.9179,0.9179,0,0,0.9366,0.9354,0.9341,0.933,0.9313,0.9303,0.93,0.9281,0.9274,0.9256,0.9249,0.9237,0.9211,0.92,0.9191,0.9178,0.9173,0.9174,0.9171,0.9162,0.9161,0.916,0.9156,0.9155,0.9172,0.9172,0.9172,0,0.9366,0.9346,0.9335,0.9321,0.9311,0.9303,0.9289,0.9279,0.9258,0.9251,0.9252,0.922,0.9208,0.9187,0.9185,0.9177,0.9173,0.9176,0.9162,0.9161,0.916,0.9156,0.9155,0.9172,0.9172,0.9172,0.9172,0,0.9347,0.9333,0.9324,0.9305,0.9294,0.928,0.9268,0.9258,0.9252,0.9243,0.9225,0.9211,0.9193,0.9188,0.9181,0.9167,0.9167,0.9165,0.9166,0.916,0.9156,0.9154,0.9173,0.9173,0.9173,0.9173,0,0,0.934,0.9316,0.9313,0.9304,0.9285,0.9274,0.926,0.9244,0.9236,0.9222,0.921,0.919,0.9188,0.9177,0.917,0.9162,0.9154,0.9161,0.916,0.916,0.9137,0.9139,0.9137,0.9151,0.915,0.915,0.9139,0,0.9328,0.9304,0.9294,0.9274,0.9261,0.9254,0.9242,0.9229,0.922,0.9208,0.9198,0.9183,0.9182,0.9176,0.9168,0.9156,0.9149,0.9157,0.914,0.9139,0.9144,0.9135,0.9136,0.9127,0.9137,0.9137,0.9137,0,0.9311,0.9297,0.9276,0.926,0.9254,0.9244,0.9228,0.9217,0.9202,0.9196,0.9185,0.9179,0.9164,0.9166,0.9146,0.9152,0.9144,0.9138,0.9137,0.9135,0.9137,0.9133,0.9123,0.9122,0.9134,0.9134,0.9134,0,0.9309,0.9285,0.927,0.9263,0.9243,0.9236,0.9227,0.9213,0.9204,0.9191,0.9185,0.917,0.9161,0.915,0.9139,0.9141,0.9121,0.9121,0.9115,0.9116,0.9111,0.9112,0.91,0.9106,0.9106,0.9106,0.9106,0,0.9296,0.9284,0.9269,0.9259,0.9245,0.9234,0.9221,0.9212,0.9199,0.9188,0.9181,0.917,0.9157,0.9145,0.9136,0.9122,0.9118,0.9113,0.9111,0.9113,0.9114,0.9108,0.9109,0.9106,0.9106,0.9106,0.9106,0,0.9291,0.928,0.9263,0.9246,0.9242,0.9232,0.9218,0.9209,0.92,0.9186,0.9182,0.9168,0.9153,0.9142,0.9123,0.9117,0.9102,0.9099,0.9107,0.9106,0.91,0.9101,0.9085,0.9082,0.909,0.909,0.909,0,0.9284,0.9274,0.9257,0.9249,0.9241,0.9228,0.9219,0.9209,0.92,0.9183,0.9176,0.9161,0.9149,0.9126,0.9114,0.9099,0.9097,0.9092,0.9094,0.9098,0.9097,0.9098,0.9097,0.9092,0.9092,0.9092,0.9092,0,0.9273,0.9268,0.9256,0.9242,0.9232,0.922,0.9208,0.9202,0.9189,0.918,0.9165,0.9156,0.9137,0.9122,0.9107,0.9098,0.9093,0.9091,0.9089,0.9092,0.9096,0.9094,0.9106,0.9091,0.9091,0.9091,0.9091,0.9091,0.9267,0.9258,0.9245,0.9231,0.9222,0.9211,0.9202,0.9192,0.918,0.9164,0.9158,0.9144,0.913,0.9109,0.91,0.9088,0.9088,0.9085,0.9084,0.9083,0.9084,0.9099,0.9086,0.9085,0.9085,0.9085,0.9085,0,0.9256,0.9247,0.9235,0.9219,0.9208,0.9205,0.9192,0.9184,0.9171,0.9159,0.9147,0.9131,0.9117,0.9104,0.909,0.9083,0.908,0.908,0.908,0.9078,0.9085,0.9088,0.9082,0.9082,0.9082,0.9082,0.9082,0.9082,0.9248,0.9234,0.9228,0.9209,0.92,0.9186,0.9179,0.9169,0.916,0.9142,0.9131,0.9123,0.9111,0.9095,0.9083,0.9079,0.9074,0.9074,0.907,0.9077,0.9077,0.9078,0.9081,0.9073,0.9073,0.9064,0.9064,0.9064]}]]